User: anonymous   Login
Location: Unspecified
(0.0000°N, 0.0000°E)
Time: 08:34:40
(UTC+00:00)
Language:

AALTO 1 - Orbit

View from above orbital plane
View from above orbital plane
View from above satellite
View from above satellite

Ground track
Ground track

The orbit data is extracted from the following two-line orbital elements,

1 42775U 17036L   19345.66140577  .00000622  00000-0  30565-4 0  9993
2 42775  97.3272  38.0404 0012927 328.8215  31.2253 15.21568379136964
Epoch (UTC): 11 December 2019 15:52:25
Eccentricity: 0.0012927
inclination: 97.3272°
perigee height: 492 km
apogee height: 510 km
right ascension of ascending node: 38.0404°
argument of perigee: 328.8215°
revolutions per day: 15.21568379
mean anomaly at epoch: 31.2253°
orbit number at epoch: 13696

The dashed part of the orbit path shows where the satellite is in the earth's shadow,  

DLR